Time,TemperatureF,DewpointF,PressureIn,WindDirection,WindDirectionDegrees,WindSpeedMPH,WindSpeedGustMPH,Humidity,HourlyPrecipIn,Conditions,Clouds,dailyrainin,SoftwareType,DateUTC
2013-02-18 00:00:00,45.4,36.2,30.26,WNW,292,0.0,0.0,70,0.00,,---,0.00,VWS V14.01,2013-02-18 05:00:00,
2013-02-18 00:30:00,46.0,36.0,30.26,NW,315,0.0,3.0,68,0.00,,---,0.00,VWS V14.01,2013-02-18 05:30:00,
2013-02-18 01:00:00,46.0,35.7,30.26,WNW,292,1.0,3.0,67,0.00,,---,0.00,VWS V14.01,2013-02-18 06:00:00,
2013-02-18 01:30:00,46.3,34.8,30.26,NW,315,1.0,5.0,64,0.00,,---,0.00,VWS V14.01,2013-02-18 06:30:00,
2013-02-18 02:00:00,46.6,34.3,30.25,NW,315,2.0,5.0,62,0.00,,---,0.00,VWS V14.01,2013-02-18 07:00:00,
2013-02-18 02:30:00,46.3,33.6,30.24,WNW,292,2.0,6.0,61,0.00,,---,0.00,VWS V14.01,2013-02-18 07:30:00,
2013-02-18 03:00:00,46.2,33.1,30.23,NW,315,2.0,5.0,60,0.00,,---,0.00,VWS V14.01,2013-02-18 08:00:00,
2013-02-18 03:30:00,46.1,32.6,30.22,NW,315,2.0,5.0,59,0.00,,---,0.00,VWS V14.01,2013-02-18 08:30:00,
2013-02-18 04:00:00,46.0,31.6,30.23,NW,315,2.0,5.0,57,0.00,,---,0.00,VWS V14.01,2013-02-18 09:00:00,
2013-02-18 04:30:00,45.8,31.0,30.23,NW,315,2.0,7.0,56,0.00,,---,0.00,VWS V14.01,2013-02-18 09:30:00,
2013-02-18 05:00:00,45.9,31.5,30.23,NW,315,2.0,5.0,57,0.00,,---,0.00,VWS V14.01,2013-02-18 10:00:00,
2013-02-18 05:30:00,45.8,31.9,30.24,NW,315,2.0,6.0,58,0.00,,---,0.00,VWS V14.01,2013-02-18 10:30:00,
2013-02-18 06:00:00,45.8,32.7,30.24,NW,315,2.0,5.0,60,0.00,,---,0.00,VWS V14.01,2013-02-18 11:00:00,
2013-02-18 06:30:00,46.0,33.7,30.24,NW,315,2.0,5.0,62,0.00,,---,0.00,VWS V14.01,2013-02-18 11:30:00,
2013-02-18 07:00:00,45.6,34.5,30.24,NW,315,0.0,3.0,65,0.00,,---,0.00,VWS V14.01,2013-02-18 12:00:00,
2013-02-18 07:30:00,46.5,36.2,30.25,NNW,338,0.0,4.0,67,0.00,,---,0.00,VWS V14.01,2013-02-18 12:30:00,
2013-02-18 08:00:00,47.4,38.1,30.26,NW,315,0.0,3.0,70,0.00,,---,0.00,VWS V14.01,2013-02-18 13:00:00,
2013-02-18 08:30:00,50.1,41.1,30.26,NNW,338,1.0,3.0,71,0.00,,---,0.00,VWS V14.01,2013-02-18 13:30:00,
2013-02-18 09:00:00,55.1,43.6,30.27,NE,45,1.0,4.0,65,0.00,,---,0.00,VWS V14.01,2013-02-18 14:00:00,
2013-02-18 09:30:00,57.7,44.8,30.27,NE,45,1.0,5.0,62,0.00,,---,0.00,VWS V14.01,2013-02-18 14:30:00,
2013-02-18 10:00:00,63.3,49.2,30.27,NE,45,1.0,11.0,60,0.00,,---,0.00,VWS V14.01,2013-02-18 15:00:00,
2013-02-18 10:30:00,64.3,48.3,30.28,ENE,68,4.0,12.0,56,0.00,,---,0.00,VWS V14.01,2013-02-18 15:30:00,
2013-02-18 11:00:00,65.1,47.1,30.28,ENE,68,4.0,11.0,52,0.00,,---,0.00,VWS V14.01,2013-02-18 16:00:00,
2013-02-18 11:30:00,65.7,49.1,30.28,NE,45,4.0,11.0,55,0.00,,---,0.00,VWS V14.01,2013-02-18 16:30:00,
2013-02-18 12:00:00,67.2,50.0,30.27,NE,45,5.0,10.0,54,0.00,,---,0.00,VWS V14.01,2013-02-18 17:00:00,
2013-02-18 12:30:00,65.9,49.8,30.26,ESE,112,4.0,14.0,56,0.00,,---,0.00,VWS V14.01,2013-02-18 17:30:00,
2013-02-18 13:00:00,66.6,49.0,30.25,East,90,4.0,10.0,53,0.00,,---,0.00,VWS V14.01,2013-02-18 18:00:00,
2013-02-18 13:30:00,67.6,47.8,30.24,ESE,112,4.0,11.0,49,0.00,,---,0.00,VWS V14.01,2013-02-18 18:30:00,
2013-02-18 14:00:00,69.2,49.8,30.23,ESE,112,4.0,13.0,50,0.00,,---,0.00,VWS V14.01,2013-02-18 19:00:00,
2013-02-18 14:30:00,68.0,49.2,30.22,ENE,68,4.0,13.0,51,0.00,,---,0.00,VWS V14.01,2013-02-18 19:30:00,
2013-02-18 15:00:00,68.6,51.3,30.21,ESE,112,4.0,12.0,54,0.00,,---,0.00,VWS V14.01,2013-02-18 20:00:00,
2013-02-18 15:30:00,67.5,51.3,30.20,ESE,112,4.0,12.0,56,0.00,,---,0.00,VWS V14.01,2013-02-18 20:30:00,
2013-02-18 16:00:00,67.4,50.2,30.20,ENE,68,4.0,12.0,54,0.00,,---,0.00,VWS V14.01,2013-02-18 21:00:00,
2013-02-18 16:30:00,66.9,51.2,30.21,ESE,112,3.0,10.0,57,0.00,,---,0.00,VWS V14.01,2013-02-18 21:30:00,
2013-02-18 17:00:00,66.9,51.2,30.21,ESE,112,3.0,10.0,57,0.00,,---,0.00,VWS V14.01,2013-02-18 22:00:00,
2013-02-18 17:05:00,65.7,51.5,30.21,East,98,2.0,7.0,60,0.00,,---,0.00,VWS V14.01,2013-02-18 22:05:00,
2013-02-18 17:10:00,65.7,51.9,30.21,ENE,59,4.0,7.0,61,0.00,,---,0.00,VWS V14.01,2013-02-18 22:10:00,
2013-02-18 17:15:00,65.6,51.4,30.20,ESE,102,1.0,7.0,60,0.00,,---,0.00,VWS V14.01,2013-02-18 22:15:00,
2013-02-18 17:20:00,65.6,51.8,30.20,SE,130,4.0,8.0,61,0.00,,---,0.00,VWS V14.01,2013-02-18 22:20:00,
2013-02-18 17:25:00,65.5,51.7,30.20,SE,141,3.0,8.0,61,0.00,,---,0.00,VWS V14.01,2013-02-18 22:25:00,
2013-02-18 17:30:00,65.4,52.1,30.20,ENE,58,3.0,3.0,62,0.00,,---,0.00,VWS V14.01,2013-02-18 22:30:00,
2013-02-18 17:35:00,65.4,52.1,30.20,ENE,65,3.0,5.0,62,0.00,,---,0.00,VWS V14.01,2013-02-18 22:35:00,
2013-02-18 17:40:00,65.2,51.9,30.20,ENE,57,2.0,7.0,62,0.00,,---,0.00,VWS V14.01,2013-02-18 22:40:00,
2013-02-18 17:45:00,65.2,51.9,30.21,SE,127,0.0,7.0,62,0.00,,---,0.00,VWS V14.01,2013-02-18 22:45:00,
2013-02-18 17:50:00,65.1,51.8,30.20,ESE,103,2.0,7.0,62,0.00,,---,0.00,VWS V14.01,2013-02-18 22:50:00,
2013-02-18 17:55:00,65.0,51.7,30.20,ENE,64,4.0,9.0,62,0.00,,---,0.00,VWS V14.01,2013-02-18 22:55:00,
2013-02-18 18:00:00,65.0,52.1,30.20,ENE,64,4.0,5.0,63,0.00,,---,0.00,VWS V14.01,2013-02-18 23:00:00,
2013-02-18 18:05:00,64.9,52.0,30.20,ESE,105,2.0,8.0,63,0.00,,---,0.00,VWS V14.01,2013-02-18 23:05:00,
2013-02-18 18:10:00,64.9,52.0,30.20,ENE,69,2.0,8.0,63,0.00,,---,0.00,VWS V14.01,2013-02-18 23:10:00,
2013-02-18 18:15:00,64.8,51.9,30.20,ENE,62,1.0,8.0,63,0.00,,---,0.00,VWS V14.01,2013-02-18 23:15:00,
2013-02-18 18:20:00,64.8,52.3,30.20,ENE,67,3.0,8.0,64,0.00,,---,0.00,VWS V14.01,2013-02-18 23:20:00,
2013-02-18 18:25:00,64.8,51.9,30.20,ENE,64,0.0,8.0,63,0.00,,---,0.00,VWS V14.01,2013-02-18 23:25:00,
2013-02-18 18:30:00,64.8,52.3,30.20,SE,128,3.0,4.0,64,0.00,,---,0.00,VWS V14.01,2013-02-18 23:30:00,
2013-02-18 18:35:00,64.7,52.3,30.20,ENE,61,1.0,4.0,64,0.00,,---,0.00,VWS V14.01,2013-02-18 23:35:00,
2013-02-18 18:40:00,64.7,52.7,30.20,ENE,58,2.0,7.0,65,0.00,,---,0.00,VWS V14.01,2013-02-18 23:40:00,
2013-02-18 18:45:00,64.7,52.7,30.20,ESE,113,4.0,7.0,65,0.00,,---,0.00,VWS V14.01,2013-02-18 23:45:00,
2013-02-18 18:50:00,64.8,52.8,30.20,NE,46,2.0,7.0,65,0.00,,---,0.00,VWS V14.01,2013-02-18 23:50:00,
2013-02-18 18:55:00,64.7,53.1,30.20,ENE,61,1.0,7.0,66,0.00,,---,0.00,VWS V14.01,2013-02-18 23:55:00,
2013-02-18 19:00:00,64.7,53.1,30.19,ESE,104,1.0,4.0,66,0.00,,---,0.00,VWS V14.01,2013-02-19 00:00:00,
2013-02-18 19:05:00,64.6,53.0,30.19,ENE,73,5.0,5.0,66,0.00,,---,0.00,VWS V14.01,2013-02-19 00:05:00,
2013-02-18 19:10:00,64.7,53.1,30.19,ENE,65,1.0,5.0,66,0.00,,---,0.00,VWS V14.01,2013-02-19 00:10:00,
2013-02-18 19:15:00,64.7,53.5,30.19,ENE,68,0.0,5.0,67,0.00,,---,0.00,VWS V14.01,2013-02-19 00:15:00,
2013-02-18 19:20:00,64.7,53.5,30.19,ENE,64,1.0,5.0,67,0.00,,---,0.00,VWS V14.01,2013-02-19 00:20:00,
2013-02-18 19:25:00,64.7,53.5,30.19,East,100,1.0,5.0,67,0.00,,---,0.00,VWS V14.01,2013-02-19 00:25:00,
2013-02-18 19:30:00,64.7,53.9,30.19,ENE,65,2.0,4.0,68,0.00,,---,0.00,VWS V14.01,2013-02-19 00:30:00,
2013-02-18 19:35:00,64.7,53.9,30.19,ESE,123,4.0,4.0,68,0.00,,---,0.00,VWS V14.01,2013-02-19 00:35:00,
2013-02-18 19:40:00,64.8,54.0,30.19,NE,56,0.0,4.0,68,0.00,,---,0.00,VWS V14.01,2013-02-19 00:40:00,
2013-02-18 19:45:00,64.7,53.9,30.19,East,88,2.0,5.0,68,0.00,,---,0.00,VWS V14.01,2013-02-19 00:45:00,
2013-02-18 19:50:00,64.8,53.6,30.19,ESE,110,1.0,5.0,67,0.00,,---,0.00,VWS V14.01,2013-02-19 00:50:00,
2013-02-18 19:55:00,64.9,54.1,30.19,East,79,2.0,5.0,68,0.00,,---,0.00,VWS V14.01,2013-02-19 00:55:00,
2013-02-18 20:00:00,65.0,53.8,30.19,ESE,120,4.0,9.0,67,0.00,,---,0.00,VWS V14.01,2013-02-19 01:00:00,
2013-02-18 20:05:00,65.2,54.0,30.19,East,81,1.0,9.0,67,0.00,,---,0.00,VWS V14.01,2013-02-19 01:05:00,
2013-02-18 20:10:00,65.1,53.9,30.19,ENE,74,3.0,9.0,67,0.00,,---,0.00,VWS V14.01,2013-02-19 01:10:00,
2013-02-18 20:15:00,65.0,53.4,30.19,ESE,112,3.0,9.0,66,0.00,,---,0.00,VWS V14.01,2013-02-19 01:15:00,
2013-02-18 20:20:00,65.0,53.8,30.19,ENE,59,1.0,9.0,67,0.00,,---,0.00,VWS V14.01,2013-02-19 01:20:00,
2013-02-18 20:25:00,64.9,53.7,30.19,ENE,63,1.0,9.0,67,0.00,,---,0.00,VWS V14.01,2013-02-19 01:25:00,
2013-02-18 20:30:00,64.9,53.7,30.19,ENE,64,5.0,6.0,67,0.00,,---,0.00,VWS V14.01,2013-02-19 01:30:00,
2013-02-18 20:35:00,65.0,53.8,30.18,ESE,122,2.0,6.0,67,0.00,,---,0.00,VWS V14.01,2013-02-19 01:35:00,
2013-02-18 20:40:00,65.0,53.8,30.18,ENE,63,0.0,6.0,67,0.00,,---,0.00,VWS V14.01,2013-02-19 01:40:00,
2013-02-18 20:45:00,65.0,53.8,30.18,ENE,71,1.0,6.0,67,0.00,,---,0.00,VWS V14.01,2013-02-19 01:45:00,
2013-02-18 20:50:00,65.0,53.8,30.19,ENE,57,0.0,6.0,67,0.00,,---,0.00,VWS V14.01,2013-02-19 01:50:00,
2013-02-18 20:55:00,64.9,53.7,30.19,SSE,148,0.0,6.0,67,0.00,,---,0.00,VWS V14.01,2013-02-19 01:55:00,
2013-02-18 21:00:00,64.8,53.2,30.19,East,90,0.0,1.0,66,0.00,,---,0.00,VWS V14.01,2013-02-19 02:00:00,
2013-02-18 21:05:00,64.7,53.1,30.19,ESE,120,2.0,5.0,66,0.00,,---,0.00,VWS V14.01,2013-02-19 02:05:00,
2013-02-18 21:10:00,64.8,52.8,30.19,East,86,0.0,5.0,65,0.00,,---,0.00,VWS V14.01,2013-02-19 02:10:00,
2013-02-18 21:15:00,65.0,53.0,30.18,ENE,78,2.0,7.0,65,0.00,,---,0.00,VWS V14.01,2013-02-19 02:15:00,
2013-02-18 21:20:00,65.0,53.0,30.19,East,80,0.0,7.0,65,0.00,,---,0.00,VWS V14.01,2013-02-19 02:20:00,
2013-02-18 21:25:00,65.1,53.9,30.19,ESE,114,1.0,7.0,67,0.00,,---,0.00,VWS V14.01,2013-02-19 02:25:00,
2013-02-18 21:30:00,65.2,54.8,30.18,ENE,70,2.0,3.0,69,0.00,,---,0.00,VWS V14.01,2013-02-19 02:30:00,
2013-02-18 21:35:00,65.1,54.7,30.18,ENE,57,1.0,4.0,69,0.00,,---,0.00,VWS V14.01,2013-02-19 02:35:00,
2013-02-18 21:41:00,65.2,55.2,30.18,ENE,61,0.0,4.0,70,0.00,,---,0.00,VWS V14.01,2013-02-19 02:41:00,
2013-02-18 21:46:00,65.2,55.2,30.19,East,86,3.0,6.0,70,0.00,,---,0.00,VWS V14.01,2013-02-19 02:46:00,
2013-02-18 21:51:00,65.3,55.3,30.18,East,89,1.0,6.0,70,0.00,,---,0.00,VWS V14.01,2013-02-19 02:51:00,
2013-02-18 21:56:00,65.4,55.4,30.18,ENE,71,3.0,7.0,70,0.00,,---,0.00,VWS V14.01,2013-02-19 02:56:00,
2013-02-18 22:00:00,65.3,55.7,30.18,NE,52,3.0,9.0,71,0.00,,---,0.00,VWS V14.01,2013-02-19 03:00:00,
2013-02-18 22:01:00,65.2,55.6,30.18,ENE,71,1.0,3.0,71,0.00,,---,0.00,VWS V14.01,2013-02-19 03:01:00,
2013-02-18 22:06:00,65.1,55.5,30.18,ESE,117,2.0,5.0,71,0.00,,---,0.00,VWS V14.01,2013-02-19 03:06:00,
2013-02-18 22:11:00,64.9,55.3,30.18,ENE,65,2.0,5.0,71,0.00,,---,0.00,VWS V14.01,2013-02-19 03:11:00,
2013-02-18 22:16:00,64.8,55.2,30.19,East,84,2.0,6.0,71,0.00,,---,0.00,VWS V14.01,2013-02-19 03:16:00,
2013-02-18 22:21:00,64.9,55.3,30.19,ESE,107,1.0,6.0,71,0.00,,---,0.00,VWS V14.01,2013-02-19 03:21:00,
2013-02-18 22:26:00,64.9,55.7,30.19,ENE,78,0.0,6.0,72,0.00,,---,0.00,VWS V14.01,2013-02-19 03:26:00,
2013-02-18 22:30:00,65.7,56.0,30.17,SE,141,3.0,8.0,71,0.00,,---,0.00,VWS V14.01,2013-02-19 03:30:00,
2013-02-18 22:31:00,64.9,55.7,30.18,ENE,76,1.0,4.0,72,0.00,,---,0.00,VWS V14.01,2013-02-19 03:31:00,
2013-02-18 22:36:00,64.9,55.7,30.18,ESE,108,2.0,4.0,72,0.00,,---,0.00,VWS V14.01,2013-02-19 03:36:00,
2013-02-18 22:41:00,64.9,55.7,30.18,ESE,105,3.0,6.0,72,0.00,,---,0.00,VWS V14.01,2013-02-19 03:41:00,
2013-02-18 22:46:00,65.0,55.8,30.18,East,88,2.0,7.0,72,0.00,,---,0.00,VWS V14.01,2013-02-19 03:46:00,
2013-02-18 22:51:00,65.2,56.0,30.18,East,90,1.0,7.0,72,0.00,,---,0.00,VWS V14.01,2013-02-19 03:51:00,
2013-02-18 22:56:00,65.3,55.7,30.18,ESE,109,1.0,8.0,71,0.00,,---,0.00,VWS V14.01,2013-02-19 03:56:00,
2013-02-18 23:00:00,65.9,56.2,30.16,NNE,29,1.0,8.0,71,0.00,,---,0.00,VWS V14.01,2013-02-19 04:00:00,
2013-02-18 23:01:00,65.4,55.8,30.18,NE,55,3.0,8.0,71,0.00,,---,0.00,VWS V14.01,2013-02-19 04:01:00,
2013-02-18 23:06:00,65.3,55.7,30.18,ESE,117,3.0,8.0,71,0.00,,---,0.00,VWS V14.01,2013-02-19 04:06:00,
2013-02-18 23:11:00,65.3,55.7,30.18,East,96,2.0,8.0,71,0.00,,---,0.00,VWS V14.01,2013-02-19 04:11:00,
2013-02-18 23:16:00,65.3,55.7,30.17,ENE,57,2.0,8.0,71,0.00,,---,0.00,VWS V14.01,2013-02-19 04:16:00,
2013-02-18 23:21:00,65.4,55.8,30.17,East,81,1.0,8.0,71,0.00,,---,0.00,VWS V14.01,2013-02-19 04:21:00,
2013-02-18 23:26:00,65.6,56.0,30.17,ESE,111,0.0,8.0,71,0.00,,---,0.00,VWS V14.01,2013-02-19 04:26:00,
2013-02-18 23:30:00,66.3,57.4,30.15,SE,133,5.0,8.0,73,0.00,,---,0.00,VWS V14.01,2013-02-19 04:30:00,
2013-02-18 23:31:00,65.7,56.0,30.17,ESE,118,2.0,8.0,71,0.00,,---,0.00,VWS V14.01,2013-02-19 04:31:00,
2013-02-18 23:36:00,65.9,55.8,30.17,NE,44,2.0,8.0,70,0.00,,---,0.00,VWS V14.01,2013-02-19 04:36:00,
2013-02-18 23:41:00,66.0,56.0,30.17,ESE,118,2.0,8.0,70,0.00,,---,0.00,VWS V14.01,2013-02-19 04:41:00,
2013-02-18 23:46:00,65.9,55.8,30.16,SE,130,1.0,8.0,70,0.00,,---,0.00,VWS V14.01,2013-02-19 04:46:00,
2013-02-18 23:51:00,65.9,55.8,30.17,ESE,106,4.0,8.0,70,0.00,,---,0.00,VWS V14.01,2013-02-19 04:51:00,
2013-02-18 23:56:00,65.9,55.8,30.16,NE,35,0.0,8.0,70,0.00,,---,0.00,VWS V14.01,2013-02-19 04:56:00,